User: anonymous   Login
Location: Cortos
(40.7190°N, 4.5893°W)
Time: 08:59:09
(UTC+00:00)
Language:

Terra - Orbit

View from above orbital plane
View from above orbital plane
View from above satellite
View from above satellite

Ground track
Ground track

The orbit data is extracted from the following two-line orbital elements,

1 25994U 99068A   20273.20475990  .00000045  00000-0  20013-4 0  9990
2 25994  98.2059 346.0087 0001463 101.6562 258.4808 14.57112078105420
Epoch (UTC): 29 September 2020 04:54:51
Eccentricity: 0.0001463
inclination: 98.2059°
perigee height: 701 km
apogee height: 703 km
right ascension of ascending node: 346.0087°
argument of perigee: 101.6562°
revolutions per day: 14.57112078
mean anomaly at epoch: 258.4808°
orbit number at epoch: 10542

The dashed part of the orbit path shows where the satellite is in the earth's shadow,  

DLR